[[[{"header":{"parameterUnit":"kt","parameterCategory":2,"dx":1,"dy":1,"la1":30.253999710083008,"la2":30.299108505249023,"lo1":-89.0895004272461,"lo2":-89.04439544677734,"nx":28,"ny":28,"refTime":"2022-09-28T21:00:00:Z","depth":0,"parameterNumber":1,"parameterNumberName":"U-component_of_WINDS"},"data":[-5.1145,-5.1302,-5.1315,-5.15,-5.1543,-5.1672,-5.1722,-5.1788,-5.1844,-5.1999,-5.2091,-5.212,-5.2181,-5.2294,-5.2394,-5.2405,-5.2448,-5.2494,-5.25,-5.2281,-5.2252,-5.2224,-5.2189,-5.2502,-5.2502,-5.2726,-5.2728,-5.2729,-5.0983,-5.1027,-5.1128,-5.1235,-5.1322,-5.1285,-5.1367,-5.1443,-5.156,-5.1629,-5.172,-5.1858,-5.1969,-5.2016,-5.2125,-5.2199,-5.2189,-5.2228,-5.2225,-5.2236,-5.2001,-5.1964,-5.2234,-5.2234,-5.2234,-5.2234,-5.2234,-5.2234,-5.0692,-5.0785,-5.0858,-5.0968,-5.1025,-5.1096,-5.1188,-5.1221,-5.1321,-5.1436,-5.1431,-5.1564,-5.1636,-5.1774,-5.1824,-5.1928,-5.1888,-5.1935,-5.1948,-5.1961,-5.1974,-5.1654,-5.1946,-5.1945,-5.1945,-5.1944,-5.1944,0,-5.0484,-5.0488,-5.0586,-5.0689,-5.0769,-5.085,-5.0926,-5.0983,-5.0997,-5.1078,-5.1198,-5.1269,-5.141,-5.1525,-5.163,-5.1672,-5.1646,-5.1643,-5.1676,-5.1683,-5.1675,-5.1685,-5.1306,-5.1636,-5.1633,-5.1631,-5.163,-5.1629,-5.0195,-5.0301,-5.0383,-5.045,-5.0495,-5.0603,-5.067,-5.0674,-5.0746,-5.084,-5.0923,-5.1037,-5.1129,-5.1319,-5.1359,-5.1464,-5.1453,-5.1578,-5.147,-5.147,-5.146,-5.1456,-5.1468,-5.1601,-5.1605,-5.1608,-5.161,0,-5.0031,-5.0052,-5.0221,-5.0291,-5.0312,-5.0424,-5.0485,-5.0578,-5.06,-5.0732,-5.0763,-5.08,-5.0917,-5.0937,-5.1075,-5.1082,-5.1269,-5.1253,-5.1244,-5.1243,-5.136,-5.135,-5.1728,-5.1779,-5.145,-5.1453,-5.1456,0,-4.9795,-4.9934,-4.9957,-5.0055,-5.021,-5.0211,-5.0364,-5.0399,-5.0462,-5.0566,-5.0536,-5.0635,-5.0644,-5.0745,-5.0755,-5.0911,-5.0936,-5.0952,-5.0954,-5.0957,-5.0956,-5.0999,-5.0986,-5.0949,-5.0947,-5.0945,-5.0944,0,-4.954,-4.9715,-4.9872,-4.9916,-5.0006,-5.008,-5.0121,-5.0191,-5.0257,-5.0345,-5.0389,-5.0492,-5.055,-5.063,-5.0643,-5.0569,-5.0832,-5.0733,-5.0849,-5.085,-5.0911,-5.0908,-5.1233,-5.0941,-5.0941,-5.094,-5.094,0,-4.9354,-4.9443,-4.9667,-4.9741,-4.9787,-4.9891,-4.9993,-5.0085,-5.0162,-5.0175,-5.0245,-5.0229,-5.0364,-5.0264,-5.0452,-5.0352,-5.041,-5.0437,-5.0446,-5.0463,-5.0353,-5.0539,-5.0843,-5.0878,-5.0473,-5.047,-5.0466,0,-4.9058,-4.929,-4.9293,-4.9506,-4.9616,-4.9576,-4.9691,-4.9759,-4.9786,-4.9884,-4.9913,-5.0025,-4.9954,-4.9993,-5.0082,-5.0118,-5.0248,-5.0101,-5.0246,-5.0251,-5.0231,-5.051,-5.0553,-5.0773,-5.0416,-5.0422,-5.0425,0,-4.8833,-4.8941,-4.8979,-4.9029,-4.9119,-4.9211,-4.9342,-4.9453,-4.9518,-4.9597,-4.9709,-4.9864,-4.9819,-4.9882,-4.988,-4.9973,-5.016,-4.9912,-4.9914,-4.9959,-5.0392,-5.0432,-5.0469,-5.0139,-5.0145,-5.015,-5.0386,0,-4.8553,-4.8671,-4.8773,-4.8884,-4.8957,-4.9091,-4.9112,-4.9186,-4.9177,-4.9203,-4.9366,-4.9428,-4.9542,-4.9588,-4.958,-4.9785,-4.9755,-4.9705,-4.9613,-4.9794,-4.9874,-4.9905,-4.9494,-4.9491,-4.9489,-4.9487,0,0,-4.8268,-4.8437,-4.8437,-4.8565,-4.8627,-4.8585,-4.8727,-4.8782,-4.8897,-4.8942,-4.8889,-4.9119,-4.9173,-4.937,-4.9428,-4.9473,-4.9513,-4.9449,-4.9707,-4.9732,-4.9754,-4.9838,-4.9871,-4.9483,-4.9483,-4.9482,-4.9481,0,-4.8171,-4.8224,-4.8363,-4.842,-4.8505,-4.8525,-4.8559,-4.8636,-4.866,-4.8819,-4.8785,-4.8885,-4.9069,-4.9131,-4.9187,-4.9424,-4.9394,-4.9456,-4.9578,-4.9684,-4.9711,-4.9736,-4.9823,-4.9855,-4.9476,-4.9476,-4.9476,0,-4.7956,-4.8012,-4.8081,-4.8219,-4.8275,-4.8389,-4.8296,-4.842,-4.8505,-4.8455,-4.8615,-4.8653,-4.8737,-4.8919,-4.9002,-4.8958,-4.9286,-4.9185,-4.9199,-4.921,-4.9314,-4.9347,-4.9376,-4.8993,-4.8991,-4.8989,0,0,-4.787,-4.7979,-4.8042,-4.82,-4.8237,-4.827,-4.8332,-4.833,-4.8406,-4.8437,-4.8485,-4.8561,-4.8667,-4.8738,-4.8839,-4.9036,-4.9055,-4.9125,-4.9147,-4.9166,-4.9187,-4.9296,-4.9328,-4.8983,-4.8983,-4.8982,0,0,-4.7829,-4.7908,-4.7886,-4.8072,-4.8144,-4.8218,-4.8315,-4.8289,-4.8383,-4.837,-4.8374,-4.8394,-4.8564,-4.8604,-4.8511,-4.8808,-4.8716,-4.8739,-4.8777,-4.8806,-4.8829,-4.8817,-4.8428,0,0,0,0,0,-4.7742,-4.7898,-4.7877,-4.7911,-4.8086,-4.8229,-4.8252,-4.8258,-4.8193,-4.8269,-4.8306,-4.8269,-4.8555,-4.8473,-4.8508,-4.8612,-4.8896,-4.8912,-4.8926,-4.9022,-4.9052,-4.9078,0,0,0,0,0,0,-4.7755,-4.7797,-4.7872,-4.7952,-4.7992,-4.8224,-4.8115,-4.8121,-4.8185,-4.8175,-4.8263,-4.8272,-4.828,-4.8456,-4.8487,-4.8586,-4.8418,-4.8902,-4.8915,-4.8927,-4.9032,-4.9057,-4.9078,0,0,0,0,0,-4.7766,-4.78,-4.808,-4.795,-4.7985,-4.803,-4.8109,-4.8113,-4.8163,-4.822,-4.8228,-4.8162,-4.8283,-4.831,-4.8474,-4.8572,-4.8396,-4.8408,-4.8911,-4.8921,-4.893,-4.9044,0,0,0,0,0,0,-4.7774,-4.7805,-4.8087,-4.8097,-4.7892,-4.8017,-4.8037,-4.8107,-4.8204,-4.8213,-4.8119,-4.811,-4.8287,-4.8307,-4.8327,-4.8566,-4.8378,-4.839,-4.8398,-4.8919,-4.8927,-4.8934,0,0,0,0,0,0,-4.7787,-4.7815,-4.8092,-4.8018,-4.802,-4.8005,-4.8023,-4.8163,-4.8206,-4.8097,-4.8092,-4.8114,-4.8256,-4.8305,-4.8321,-4.8541,-4.8365,-4.8376,-4.8384,-4.8389,-4.8925,-4.8932,0,0,0,0,0,0,-4.7799,-4.7822,-4.8015,-4.8017,-4.8019,-4.8139,-4.813,-4.831,-4.8141,-4.8093,-4.8126,-4.8119,-4.8256,-4.8272,-4.8318,-4.853,-4.8538,-4.8365,-4.8373,-4.8379,-4.8382,0,0,0,0,0,0,0,-4.7808,-4.7648,-4.8023,-4.8016,-4.8017,-4.8196,-4.8199,-4.8202,-4.8139,-4.8133,-4.8127,-4.8122,-4.83,-4.8313,-4.8325,-4.8522,0,0,-4.8364,-4.837,0,0,0,0,0,0,0,0,-4.7638,-4.7646,-4.8023,-4.8026,-4.8028,-4.8197,-4.8199,-4.8202,-4.8138,-4.8133,-4.8128,-4.8124,-4.8304,-4.8314,-4.8324,0,0,0,0,0,0,0,0,0,0,0,0,0,0,0,-4.8024,-4.8025,0,-4.8197,-4.8199,-4.8201,-4.8137,-4.8133,-4.813,-4.8126,-4.8307,-4.8315,-4.8323,0,0,0,0,0,0,0,0,0,0,0,0,0,0,0,0,0,0,0,0,0,0,0,0,0,0,0,0,0,0,0,0,0,0,0,0,0,0,0,0,0,0,0,0,0,0,0,0,0,0,0,0,0,0,0,0,0,0,0,0,0,0,0,0,0,0,0,0,0]}],[{"header":{"parameterUnit":"kt","parameterCategory":2,"dx":1,"dy":1,"la1":30.253999710083008,"la2":30.299108505249023,"lo1":-89.0895004272461,"lo2":-89.04439544677734,"nx":28,"ny":28,"refTime":"2022-09-28T21:00:00:Z","depth":0,"parameterNumber":2,"parameterNumberName":"V-component_of_WINDS"},"data":[-10.8646,-10.8772,-10.877,-10.8911,-10.8933,-10.9028,-10.906,-10.9101,-10.9132,-10.9242,-10.9303,-10.931,-10.9336,-10.9406,-10.9469,-10.947,-10.9497,-10.9544,-10.9537,-10.9332,-10.9303,-10.9275,-10.9247,-10.9551,-10.9551,-10.975,-10.9751,-10.9753,-10.8497,-10.8521,-10.8595,-10.8665,-10.8728,-10.8682,-10.8731,-10.8786,-10.8871,-10.8909,-10.897,-10.9064,-10.9137,-10.9146,-10.9214,-10.9269,-10.9249,-10.9288,-10.9283,-10.9288,-10.9069,-10.9038,-10.9303,-10.9303,-10.9303,-10.9303,-10.9303,-10.9302,-10.8224,-10.83,-10.8342,-10.8422,-10.8456,-10.8502,-10.8571,-10.858,-10.8649,-10.8723,-10.8703,-10.8797,-10.8832,-10.891,-10.8934,-10.9005,-10.896,-10.9,-10.901,-10.902,-10.9033,-10.8747,-10.9015,-10.9015,-10.9014,-10.9013,-10.9013,0,-10.8024,-10.8017,-10.8088,-10.8159,-10.8216,-10.8269,-10.8317,-10.8359,-10.8338,-10.8396,-10.8479,-10.8525,-10.8615,-10.869,-10.8752,-10.8768,-10.8721,-10.8715,-10.8742,-10.8754,-10.8758,-10.8757,-10.8401,-10.8707,-10.8705,-10.8703,-10.8701,-10.87,-10.7749,-10.7837,-10.7878,-10.7928,-10.7953,-10.8033,-10.808,-10.8055,-10.8104,-10.8156,-10.8222,-10.8297,-10.8357,-10.8486,-10.8489,-10.8555,-10.8532,-10.865,-10.8542,-10.855,-10.8534,-10.8529,-10.8538,-10.8672,-10.8676,-10.8678,-10.8681,0,-10.7594,-10.7589,-10.7724,-10.7754,-10.7764,-10.7857,-10.7881,-10.7953,-10.7951,-10.805,-10.8071,-10.8067,-10.8147,-10.8131,-10.8217,-10.8206,-10.8353,-10.833,-10.8342,-10.8336,-10.844,-10.8431,-10.878,-10.8824,-10.8509,-10.8512,-10.8515,0,-10.7357,-10.7472,-10.7457,-10.7536,-10.7663,-10.7635,-10.7761,-10.7772,-10.7803,-10.788,-10.7826,-10.7899,-10.7867,-10.7937,-10.792,-10.8038,-10.8054,-10.8052,-10.8046,-10.8057,-10.8057,-10.8081,-10.8066,-10.8029,-10.8027,-10.8026,-10.8025,0,-10.7115,-10.7242,-10.737,-10.7397,-10.744,-10.75,-10.7519,-10.7553,-10.7598,-10.7652,-10.768,-10.7745,-10.778,-10.783,-10.7809,-10.7736,-10.7952,-10.7846,-10.7949,-10.795,-10.7998,-10.7995,-10.8309,-10.8022,-10.8022,-10.8021,-10.8021,0,-10.6922,-10.6982,-10.7168,-10.7202,-10.7236,-10.7319,-10.7383,-10.745,-10.7489,-10.7485,-10.7527,-10.7488,-10.759,-10.7487,-10.7626,-10.7537,-10.7574,-10.7581,-10.7588,-10.7596,-10.7481,-10.766,-10.7961,-10.7992,-10.7603,-10.76,-10.7597,0,-10.6647,-10.6833,-10.6811,-10.6987,-10.707,-10.7006,-10.7096,-10.7133,-10.7135,-10.7203,-10.7204,-10.7281,-10.7201,-10.7223,-10.7294,-10.7297,-10.7412,-10.728,-10.7376,-10.738,-10.7369,-10.7645,-10.7694,-10.7897,-10.7552,-10.7557,-10.756,0,-10.6433,-10.6486,-10.6519,-10.6549,-10.6595,-10.6664,-10.6768,-10.684,-10.6887,-10.6933,-10.7019,-10.7126,-10.707,-10.7107,-10.7081,-10.7156,-10.7333,-10.7085,-10.7085,-10.713,-10.7528,-10.7574,-10.7608,-10.7299,-10.7304,-10.7308,-10.7525,0,-10.6143,-10.6235,-10.6324,-10.6392,-10.6443,-10.6552,-10.6538,-10.6592,-10.6564,-10.6563,-10.6688,-10.6712,-10.6782,-10.6816,-10.6788,-10.6964,-10.6932,-10.6871,-10.6768,-10.695,-10.7021,-10.705,-10.6665,-10.6661,-10.6659,-10.6657,0,0,-10.5881,-10.6012,-10.5984,-10.6086,-10.6127,-10.6058,-10.6175,-10.6206,-10.627,-10.6299,-10.6242,-10.6398,-10.6419,-10.6572,-10.6627,-10.6655,-10.6685,-10.6622,-10.6864,-10.6887,-10.6909,-10.6985,-10.7015,-10.6652,-10.6651,-10.665,-10.6649,0,-10.5773,-10.5802,-10.592,-10.5951,-10.5998,-10.5992,-10.602,-10.6052,-10.6057,-10.618,-10.6118,-10.619,-10.6315,-10.6346,-10.6378,-10.6603,-10.6551,-10.6626,-10.6753,-10.6838,-10.6865,-10.6888,-10.6969,-10.6998,-10.6643,-10.6643,-10.6644,0,-10.5559,-10.5585,-10.5641,-10.5732,-10.5761,-10.5847,-10.5738,-10.5834,-10.5897,-10.5812,-10.5934,-10.5945,-10.5984,-10.613,-10.6195,-10.6144,-10.6431,-10.6337,-10.6353,-10.6359,-10.6441,-10.6473,-10.6501,-10.6125,-10.6123,-10.6121,0,0,-10.5467,-10.5552,-10.557,-10.5708,-10.573,-10.5723,-10.5767,-10.5744,-10.5783,-10.5798,-10.5811,-10.5849,-10.592,-10.5968,-10.6035,-10.6198,-10.6203,-10.6274,-10.6298,-10.6318,-10.6336,-10.6422,-10.6454,-10.6115,-10.6115,-10.6114,0,0,-10.5422,-10.545,-10.5415,-10.5573,-10.5614,-10.5639,-10.5722,-10.5679,-10.5738,-10.5723,-10.5685,-10.5693,-10.5829,-10.5841,-10.5756,-10.5998,-10.5897,-10.5917,-10.5985,-10.6016,-10.604,-10.6034,-10.5645,0,0,0,0,0,-10.5304,-10.5446,-10.5415,-10.5439,-10.5553,-10.5657,-10.5671,-10.5644,-10.5574,-10.5641,-10.5644,-10.5586,-10.5788,-10.5712,-10.5735,-10.5829,-10.6031,-10.6046,-10.606,-10.6186,-10.6218,-10.6245,0,0,0,0,0,0,-10.5313,-10.5343,-10.5411,-10.5443,-10.5468,-10.5651,-10.5527,-10.5523,-10.5566,-10.5554,-10.5587,-10.5587,-10.5564,-10.5698,-10.5719,-10.581,-10.5638,-10.6037,-10.6049,-10.6061,-10.6197,-10.6223,-10.6246,0,0,0,0,0,-10.532,-10.5344,-10.5535,-10.544,-10.5462,-10.5461,-10.5521,-10.5517,-10.555,-10.5555,-10.5553,-10.5526,-10.5567,-10.5583,-10.571,-10.5801,-10.5623,-10.5631,-10.6045,-10.6055,-10.6064,-10.621,0,0,0,0,0,0,-10.5326,-10.534,-10.5538,-10.5544,-10.5385,-10.545,-10.546,-10.5513,-10.5548,-10.5547,-10.5492,-10.5481,-10.5571,-10.5583,-10.5595,-10.5799,-10.5611,-10.5619,-10.5624,-10.6052,-10.606,-10.6067,0,0,0,0,0,0,-10.5327,-10.5346,-10.5541,-10.5472,-10.547,-10.544,-10.5449,-10.5552,-10.5549,-10.5482,-10.5474,-10.5487,-10.5551,-10.5583,-10.5593,-10.5755,-10.5601,-10.5609,-10.5615,-10.5618,-10.6059,-10.6065,0,0,0,0,0,0,-10.5334,-10.535,-10.5471,-10.5469,-10.5466,-10.5526,-10.553,-10.5647,-10.5494,-10.5481,-10.5479,-10.5472,-10.5554,-10.5562,-10.5592,-10.575,-10.5754,-10.5602,-10.5607,-10.5611,-10.5613,0,0,0,0,0,0,0,-10.534,-10.5241,-10.5506,-10.5466,-10.5463,-10.5595,-10.5596,-10.5598,-10.5492,-10.5486,-10.548,-10.5475,-10.5557,-10.5565,-10.5574,-10.5746,0,0,-10.5601,-10.5605,0,0,0,0,0,0,0,0,-10.5234,-10.5239,-10.5506,-10.5507,-10.5508,-10.5595,-10.5596,-10.5598,-10.5491,-10.5486,-10.5482,-10.5477,-10.5559,-10.5566,-10.5573,0,0,0,0,0,0,0,0,0,0,0,0,0,0,0,-10.5506,-10.5507,0,-10.5595,-10.5596,-10.5597,-10.549,-10.5487,-10.5483,-10.5479,-10.5561,-10.5567,-10.5573,0,0,0,0,0,0,0,0,0,0,0,0,0,0,0,0,0,0,0,0,0,0,0,0,0,0,0,0,0,0,0,0,0,0,0,0,0,0,0,0,0,0,0,0,0,0,0,0,0,0,0,0,0,0,0,0,0,0,0,0,0,0,0,0,0,0,0,0,0]}]]]